Terminal Aerodrome Forecast
Issued by NWS

Home | Current Version | Previous Version | Text Only | Print | Product List | Glossary On
Versions: 1 2 3 4 5 6 7 8 9 10 11 12 13 14 15
000
FTUS45 KVEF 231700
TAFBIH
TAF
KBIH 231720Z 2318/2418 VRB06KT P6SM FEW250
     FM231900 17015G25KT P6SM FEW250
     FM240200 16010KT P6SM SKC
     FM240900 33006KT P6SM SKC=

USA.gov is the U.S. government's official web portal to all federal, state and local government web resources and services.